FW5871 Weather Reports


Display with metric or nautical units.
time (UTC)temp
F
wind
direction
speed
MPH
gust
MPH
rain 1hr
in
rain 24hr
in
rain mn
in
humidity
%
barometer
mb
20200410100035 24 288 1.0 3.0 0.00 0.00 0.00 80 1020.6
20200410095527 24 288 1.0 3.0 0.00 0.00 0.00 80 1020.6
20200410095028 24 288 1.0 4.0 0.00 0.00 0.00 80 1020.9
20200410094556 24 281 3.0 5.0 0.00 0.00 0.00 79 1021.0
20200410094038 24 283 3.0 5.0 0.00 0.00 0.00 79 1021.1
20200410093537 24 287 2.0 5.0 0.00 0.00 0.00 79 1021.0
20200410093101 24 284 2.0 6.0 0.00 0.00 0.00 80 1021.1
20200410092526 24 286 3.0 6.0 0.00 0.00 0.00 79 1021.1
20200410092023 24 281 3.0 7.0 0.00 0.00 0.00 80 1021.3
20200410091833 24 290 4.0 8.0 0.00 0.00 0.00 80 1021.4
20200410080042 25 281 3.0 6.0 0.00 0.00 0.00 77 1020.8
20200410075530 25 286 4.0 6.0 0.00 0.00 0.00 76 1020.8
20200410075028 25 276 3.0 6.0 0.00 0.00 0.00 77 1020.8
20200410074624 25 271 3.0 5.0 0.00 0.00 0.00 76 1020.7
20200410074030 25 269 2.0 7.0 0.00 0.00 0.00 76 1020.6
20200410073536 25 269 3.0 7.0 0.00 0.00 0.00 75 1020.7
20200410073048 25 263 2.0 5.0 0.00 0.00 0.00 76 1020.7
20200410072533 25 281 3.0 5.0 0.00 0.00 0.00 75 1020.7
20200410072024 25 264 3.0 6.0 0.00 0.00 0.00 75 1020.7
20200410071526 25 274 3.0 6.0 0.00 0.00 0.00 74 1020.7
20200410071028 26 273 3.0 5.0 0.00 0.00 0.00 74 1020.6
20200410070538 26 277 3.0 5.0 0.00 0.00 0.00 74 1020.5
20200410070054 26 276 2.0 4.0 0.00 0.00 0.00 73 1020.4
20200410065528 26 278 2.0 3.0 0.00 0.00 0.00 73 1020.4
20200410065028 26 278 2.0 4.0 0.00 0.00 0.00 73 1020.3
20200410064529 26 278 2.0 4.0 0.00 0.00 0.00 73 1020.4
20200410064028 27 279 1.0 4.0 0.00 0.00 0.00 72 1020.3
20200410063551 27 278 2.0 4.0 0.00 0.00 0.00 72 1020.3
20200410063027 27 278 2.0 4.0 0.00 0.00 0.00 71 1020.4
20200410062528 28 284 2.0 4.0 0.00 0.00 0.00 71 1020.4
20200410062033 28 287 2.0 4.0 0.00 0.00 0.00 71 1020.4
20200410061603 28 288 2.0 4.0 0.00 0.00 0.00 71 1020.5
20200410061025 28 291 2.0 4.0 0.00 0.00 0.00 70 1020.4
20200410060539 28 288 2.0 4.0 0.00 0.00 0.00 70 1020.5
20200410060136 28 290 2.0 4.0 0.00 0.00 0.00 70 1020.3
20200410055528 28 284 2.0 4.0 0.00 0.00 0.00 70 1020.1
20200410055027 28 283 2.0 4.0 0.00 0.00 0.00 70 1020.1
20200410054607 28 292 2.0 3.0 0.00 0.00 0.00 70 1020.0
20200410054027 28 291 2.0 3.0 0.00 0.00 0.00 70 1020.0
20200410053526 29 292 2.0 4.0 0.00 0.00 0.00 70 1020.1
20200410053030 29 290 2.0 4.0 0.00 0.00 0.00 70 1020.0
20200410052542 29 288 2.0 4.0 0.00 0.00 0.00 70 1020.1
20200410052028 29 285 2.0 4.0 0.00 0.00 0.00 69 1020.0
20200410051604 29 286 2.0 4.0 0.00 0.00 0.00 69 1020.0
20200410051037 29 290 2.0 4.0 0.00 0.00 0.00 68 1020.0
20200410050540 29 288 2.0 4.0 0.00 0.00 0.00 68 1019.9
20200410050111 29 286 2.0 4.0 0.00 0.00 0.00 68 1019.8
20200410045534 30 288 2.0 4.0 0.00 0.00 0.00 68 1019.8
20200410045028 30 290 2.0 4.0 0.00 0.00 0.00 68 1019.9
20200410044551 30 290 2.0 4.0 0.00 0.00 0.00 67 1019.8
20200410044035 30 290 2.0 4.0 0.00 0.00 0.00 67 1019.8
20200410043525 30 296 2.0 6.0 0.00 0.00 0.00 66 1019.8
20200410043038 30 297 2.0 6.0 0.00 0.00 0.00 66 1019.8
20200410042536 30 293 3.0 4.0 0.00 0.00 0.00 66 1019.8
20200410042026 30 293 3.0 4.0 0.00 0.00 0.00 65 1019.8
20200410041605 30 295 3.0 4.0 0.00 0.00 0.00 65 1019.8
20200410041040 31 292 3.0 5.0 0.00 0.00 0.00 64 1019.7
20200410040608 31 290 3.0 5.0 0.00 0.00 0.00 64 1019.8
20200410040140 31 292 3.0 5.0 0.00 0.00 0.00 64 1019.8
20200410035528 31 294 3.0 5.0 0.00 0.00 0.00 63 1019.8
20200410035026 31 296 3.0 6.0 0.00 0.00 0.00 63 1019.8
20200410034606 31 293 3.0 6.0 0.00 0.00 0.00 63 1019.9
20200410034048 31 292 3.0 5.0 0.00 0.00 0.00 62 1019.8
20200410033539 32 285 3.0 5.0 0.00 0.00 0.00 61 1019.7
20200410033044 32 298 3.0 5.0 0.00 0.00 0.00 61 1019.8
20200410032605 32 292 3.0 5.0 0.00 0.00 0.00 60 1019.8
20200410032027 32 309 3.0 4.0 0.00 0.00 0.00 60 1019.8
20200410031619 32 302 2.0 4.0 0.00 0.00 0.00 60 1019.8
20200410031027 32 304 3.0 5.0 0.00 0.00 0.00 59 1019.8
20200410030535 32 307 3.0 5.0 0.00 0.00 0.00 58 1019.8
20200410030217 32 297 3.0 4.0 0.00 0.00 0.00 59 1019.8
20200410025528 32 290 3.0 4.0 0.00 0.00 0.00 58 1019.8
20200410025027 32 297 3.0 4.0 0.00 0.00 0.00 57 1019.8
20200410024623 32 290 2.0 4.0 0.00 0.00 0.00 56 1019.9
20200410024035 33 296 2.0 4.0 0.00 0.00 0.00 56 1019.9
20200410023532 33 304 3.0 5.0 0.00 0.00 0.00 56 1019.9
20200410023144 33 300 3.0 5.0 0.00 0.00 0.00 55 1019.8
20200410022534 33 288 2.0 4.0 0.00 0.00 0.00 55 1019.8
20200410022027 33 299 3.0 5.0 0.00 0.00 0.00 54 1019.8
20200410021545 34 302 3.0 6.0 0.00 0.00 0.00 54 1019.7
20200410021104 34 309 3.0 6.0 0.00 0.00 0.00 54 1019.7
20200410020535 34 310 4.0 6.0 0.00 0.00 0.00 53 1019.4
20200410020052 34 319 4.0 7.0 0.00 0.00 0.00 52 1019.4
20200410015542 35 312 4.0 7.0 0.00 0.00 0.00 51 1019.4
20200410015035 35 292 5.0 6.0 0.00 0.00 0.00 50 1019.2
20200410014604 35 291 4.0 7.0 0.00 0.00 0.00 50 1019.2
20200410014029 34 281 4.0 7.0 0.00 0.00 0.00 50 1019.2
20200410013524 34 293 3.0 5.0 0.00 0.00 0.00 50 1019.0
20200410013117 34 305 3.0 5.0 0.00 0.00 0.00 51 1018.9
20200410012525 34 297 3.0 5.0 0.00 0.00 0.00 50 1018.8
20200410012033 35 307 3.0 5.0 0.00 0.00 0.00 50 1018.7
20200410011622 35 307 3.0 7.0 0.00 0.00 0.00 50 1018.5
20200410011053 35 311 4.0 7.0 0.00 0.00 0.00 50 1018.4
20200410010532 35 288 3.0 5.0 0.00 0.00 0.00 49 1018.4
20200410010031 35 307 3.0 7.0 0.00 0.00 0.00 48 1018.4
20200410005529 35 295 4.0 7.0 0.00 0.00 0.00 48 1018.3
20200410005025 36 302 4.0 7.0 0.00 0.00 0.00 48 1018.2
20200410004621 36 320 4.0 8.0 0.00 0.00 0.00 48 1018.1
20200410004027 36 307 4.0 8.0 0.00 0.00 0.00 47 1017.8
20200410003529 36 307 5.0 7.0 0.00 0.00 0.00 47 1017.7
20200410003109 37 315 4.0 7.0 0.00 0.00 0.00 48 1017.7
20200410002526 37 304 4.0 8.0 0.00 0.00 0.00 47 1017.6
20200410002026 37 327 5.0 8.0 0.00 0.00 0.00 46 1017.5
20200410001742 37 304 5.0 9.0 0.00 0.00 0.00 45 1017.5
20200410001029 37 304 6.0 9.0 0.00 0.00 0.00 45 1017.6
20200410000527 37 311 6.0 9.0 0.00 0.00 0.00 45 1017.5
20200410000044 38 300 6.0 11.0 0.00 0.00 0.00 43 1017.4
20200409235537 38 313 6.0 11.0 0.00 0.00 0.00 43 1017.3
20200409235024 37 313 6.0 11.0 0.00 0.00 0.00 42 1017.2
20200409234545 37 307 6.0 11.0 0.00 0.00 0.00 42 1017.1
20200409234027 38 330 6.0 10.0 0.00 0.00 0.00 40 1017.1
20200409233528 38 302 7.0 11.0 0.00 0.00 0.00 39 1017.0
20200409233045 38 309 7.0 11.0 0.00 0.00 0.00 40 1016.8
20200409232531 38 313 6.0 9.0 0.00 0.00 0.00 44 1016.8
20200409232030 38 300 6.0 9.0 0.00 0.00 0.00 44 1016.9
20200409231549 38 307 5.0 12.0 0.00 0.00 0.00 43 1016.8
20200409231028 38 305 7.0 12.0 0.00 0.00 0.00 41 1016.7
20200409230532 38 307 6.0 9.0 0.00 0.00 0.00 43 1016.6
20200409230041 38 315 5.0 10.0 0.00 0.00 0.00 42 1016.6
20200409225527 38 300 6.0 10.0 0.00 0.00 0.00 43 1016.6
20200409225028 38 309 7.0 10.0 0.00 0.00 0.00 43 1016.5
20200409224540 38 316 8.0 12.0 0.00 0.00 0.00 45 1016.5
20200409224026 39 292 8.0 16.0 0.00 0.00 0.00 43 1016.4
20200409223536 39 314 7.0 16.0 0.00 0.00 0.00 43 1016.2
20200409223110 39 316 7.0 16.0 0.00 0.00 0.00 43 1016.2
20200409222530 39 287 8.0 15.0 0.00 0.00 0.00 36 1015.8
20200409222024 40 293 8.0 15.0 0.00 0.00 0.00 35 1015.6
20200409221543 41 303 9.0 14.0 0.00 0.00 0.00 35 1015.6
20200409221026 41 311 7.0 12.0 0.00 0.00 0.00 38 1015.6
20200409220526 41 317 8.0 12.0 0.00 0.00 0.00 39 1015.6
20200409220039 40 313 8.0 13.0 0.00 0.00 0.00 40 1015.5
20200409215528 42 310 8.0 13.0 0.00 0.00 0.00 35 1015.3
20200409215033 43 328 8.0 15.0 0.00 0.00 0.00 36 1015.2
20200409214538 42 311 10.0 15.0 0.00 0.00 0.00 37 1015.3
20200409214030 42 316 9.0 14.0 0.00 0.00 0.00 34 1015.3
20200409213528 41 297 9.0 14.0 0.00 0.00 0.00 40 1015.3
20200409213038 42 301 8.0 14.0 0.00 0.00 0.00 40 1015.0
20200409212533 42 286 8.0 14.0 0.00 0.00 0.00 35 1015.0
20200409212047 42 294 8.0 14.0 0.00 0.00 0.00 38 1015.2
20200409211553 42 293 9.0 15.0 0.00 0.00 0.00 39 1015.1
20200409211027 41 304 9.0 17.0 0.00 0.00 0.00 42 1015.0
20200409210529 41 314 10.0 17.0 0.00 0.00 0.00 39 1015.0
20200409210026 42 293 8.0 15.0 0.00 0.00 0.00 40 1014.9
20200409205530 41 300 9.0 15.0 0.00 0.00 0.00 38 1015.0
20200409205027 42 316 9.0 17.0 0.00 0.00 0.00 39 1014.9
20200409204645 43 299 9.0 17.0 0.00 0.00 0.00 37 1014.7
20200409204026 43 316 10.0 15.0 0.00 0.00 0.00 34 1014.6
20200409203532 42 307 9.0 15.0 0.00 0.00 0.00 38 1014.9
20200409203031 42 326 9.0 17.0 0.00 0.00 0.00 37 1014.8
20200409202527 42 306 9.0 17.0 0.00 0.00 0.00 38 1014.5
20200409202033 41 295 12.0 17.0 0.00 0.00 0.00 36 1014.5
20200409201541 41 303 9.0 16.0 0.00 0.00 0.00 37 1014.5
20200409201034 41 307 9.0 15.0 0.00 0.00 0.00 38 1014.5
20200409200530 42 311 10.0 15.0 0.00 0.00 0.00 38 1014.3
20200409200137 42 302 9.0 15.0 0.00 0.00 0.00 38 1014.4
20200409195524 42 294 9.0 15.0 0.00 0.00 0.00 41 1014.7
20200409195048 41 314 9.0 15.0 0.00 0.00 0.00 45 1014.6
20200409194546 40 295 10.0 15.0 0.00 0.00 0.00 45 1014.6
20200409194025 40 294 9.0 14.0 0.00 0.00 0.00 44 1014.6
20200409193537 40 323 9.0 14.0 0.00 0.00 0.00 47 1014.7
20200409193102 41 302 9.0 13.0 0.00 0.00 0.00 44 1014.2
20200409192526 42 315 8.0 15.0 0.00 0.00 0.00 46 1014.2
20200409192024 43 301 9.0 15.0 0.00 0.00 0.00 41 1014.1
20200409191547 43 295 9.0 14.0 0.00 0.00 0.00 44 1014.0
20200409191027 43 313 9.0 16.0 0.00 0.00 0.00 43 1013.9
20200409190525 41 314 8.0 16.0 0.00 0.00 0.00 50 1013.9
20200409190042 41 302 6.0 11.0 0.00 0.00 0.00 56 1013.9
20200409185532 39 307 5.0 11.0 0.00 0.00 0.00 61 1014.2
20200409185026 38 295 8.0 18.0 0.00 0.00 0.00 64 1014.3
20200409184603 38 311 10.0 18.0 0.00 0.00 0.00 65 1014.1
20200409184031 43 316 8.0 12.0 0.00 0.00 0.00 51 1013.7
20200409183526 42 311 6.0 10.0 0.00 0.00 0.00 54 1013.6
20200409183029 41 309 6.0 10.0 0.00 0.00 0.00 57 1013.8
20200409182542 41 303 6.0 14.0 0.00 0.00 0.00 59 1013.8
20200409182025 41 321 8.0 14.0 0.00 0.00 0.00 61 1013.7
20200409181606 42 308 10.0 15.0 0.00 0.00 0.00 61 1013.8
20200409181025 43 321 9.0 15.0 0.00 0.00 0.00 54 1013.5
20200409180541 43 301 8.0 16.0 0.00 0.00 0.00 56 1013.4
20200409180113 43 303 12.0 16.0 0.00 0.00 0.00 52 1013.3
20200409175525 45 306 7.0 14.0 0.00 0.00 0.00 45 1013.0
20200409175026 44 293 9.0 15.0 0.00 0.00 0.00 49 1012.8
20200409174605 45 289 10.0 15.0 0.00 0.00 0.00 42 1012.7
20200409174037 45 291 7.0 12.0 0.00 0.00 0.00 47 1012.7
20200409173525 45 334 6.0 19.0 0.00 0.00 0.00 50 1012.7
20200409173101 46 295 11.0 19.0 0.00 0.00 0.00 38 1012.5
20200409172526 47 271 8.0 23.0 0.00 0.00 0.00 42 1012.4
20200409172034 45 288 11.0 23.0 0.00 0.00 0.00 49 1012.4
20200409171629 44 269 11.0 20.0 0.00 0.00 0.00 46 1012.4
20200409171024 45 285 10.0 19.0 0.00 0.00 0.00 41 1012.6
20200409170527 45 283 10.0 19.0 0.00 0.00 0.00 42 1012.3
20200409170029 45 283 10.0 18.0 0.00 0.00 0.00 40 1012.2
20200409165527 45 302 8.0 15.0 0.00 0.00 0.00 41 1012.2
20200409165027 45 271 4.0 8.0 0.00 0.00 0.00 47 1012.5
20200409164527 43 284 4.0 11.0 0.00 0.00 0.00 52 1012.5
20200409164033 42 300 7.0 11.0 0.00 0.00 0.00 52 1012.6
20200409163530 43 306 6.0 24.0 0.00 0.00 0.00 50 1012.7
20200409163134 44 308 7.0 24.0 0.00 0.00 0.00 45 1012.6
20200409162538 45 290 12.0 21.0 0.00 0.00 0.00 37 1012.6
20200409162031 47 274 11.0 19.0 0.00 0.00 0.00 40 1012.3
20200409161540 47 274 9.0 23.0 0.00 0.00 0.00 38 1012.5
20200409161034 47 278 12.0 23.0 0.00 0.00 0.00 42 1012.5
20200409160531 46 271 10.0 17.0 0.00 0.00 0.00 40 1012.7
20200409160029 47 278 9.0 21.0 0.00 0.00 0.00 39 1012.5
20200409155533 48 328 12.0 21.0 0.00 0.00 0.00 41 1012.5
20200409155034 48 265 8.0 15.0 0.00 0.00 0.00 43 1012.5
20200409154556 47 279 8.0 14.0 0.00 0.00 0.00 41 1012.4
20200409154027 47 277 8.0 14.0 0.00 0.00 0.00 43 1012.4
20200409153532 46 290 8.0 20.0 0.00 0.00 0.00 43 1012.6
20200409153039 46 264 9.0 20.0 0.00 0.00 0.00 43 1012.5
20200409152528 46 272 7.0 14.0 0.00 0.00 0.00 42 1012.5
20200409152032 46 281 5.0 13.0 0.00 0.00 0.00 45 1012.6
20200409151536 46 281 7.0 13.0 0.00 0.00 0.00 49 1012.7
20200409151029 45 274 7.0 13.0 0.00 0.00 0.00 49 1012.7
20200409150535 45 297 6.0 12.0 0.00 0.00 0.00 48 1012.7
20200409150037 45 278 6.0 12.0 0.00 0.00 0.00 54 1012.8
20200409145526 44 282 7.0 12.0 0.00 0.00 0.00 53 1012.8
20200409145030 44 288 5.0 9.0 0.00 0.00 0.00 53 1012.8
20200409144624 43 286 5.0 10.0 0.00 0.00 0.00 54 1012.9
20200409144040 42 295 4.0 10.0 0.00 0.00 0.00 53 1012.9
20200409143528 43 304 4.0 10.0 0.00 0.00 0.00 53 1012.9
20200409143211 42 290 5.0 10.0 0.00 0.00 0.00 56 1013.0
20200409142531 42 293 4.0 8.0 0.00 0.00 0.00 55 1012.9
20200409142030 41 283 5.0 8.0 0.00 0.00 0.00 59 1013.0
20200409141602 41 303 5.0 8.0 0.00 0.00 0.00 59 1012.9
20200409141026 41 292 4.0 7.0 0.00 0.00 0.00 59 1013.0
20200409140524 40 290 3.0 8.0 0.00 0.00 0.00 62 1013.0
20200409140107 40 298 4.0 8.0 0.00 0.00 0.00 62 1013.1
20200409135532 40 294 3.0 6.0 0.00 0.00 0.00 63 1013.0
20200409135025 39 297 4.0 7.0 0.00 0.00 0.00 63 1013.1
20200409134541 39 298 3.0 8.0 0.00 0.00 0.00 67 1012.9
20200409134033 39 290 5.0 8.0 0.00 0.00 0.00 66 1013.0
20200409133526 39 282 4.0 9.0 0.00 0.00 0.00 68 1013.0
20200409133027 38 288 4.0 9.0 0.00 0.00 0.00 71 1013.0
20200409132525 37 307 4.0 7.0 0.00 0.00 0.00 71 1013.0
20200409132025 37 271 5.0 7.0 0.00 0.00 0.00 71 1013.0
20200409131533 37 248 5.0 10.0 0.00 0.00 0.00 72 1013.0
20200409131026 37 274 5.0 10.0 0.00 0.00 0.00 72 1013.0
20200409130528 36 295 5.0 10.0 0.00 0.00 0.00 74 1013.0
20200409130100 36 279 5.0 9.0 0.00 0.00 0.00 73 1012.9
20200409125527 35 270 4.0 8.0 0.00 0.00 0.00 74 1013.0
20200409125028 35 275 4.0 7.0 0.00 0.00 0.00 74 1013.1
20200409124601 35 266 4.0 9.0 0.00 0.00 0.00 75 1013.0
20200409124027 35 273 4.0 9.0 0.00 0.00 0.00 75 1013.1
20200409123536 35 283 3.0 7.0 0.00 0.00 0.00 75 1013.2
20200409123041 35 271 3.0 7.0 0.00 0.00 0.00 74 1013.2
20200409122532 34 274 3.0 6.0 0.00 0.00 0.00 74 1013.3
20200409122042 34 262 4.0 6.0 0.00 0.00 0.00 75 1013.3
20200409121532 34 265 4.0 8.0 0.00 0.00 0.00 74 1013.3
20200409121025 34 285 3.0 8.0 0.00 0.00 0.00 74 1013.6
20200409120531 34 274 3.0 7.0 0.00 0.00 0.00 74 1013.4
20200409120050 34 274 3.0 5.0 0.00 0.00 0.00 76 1013.4
20200409115527 33 268 2.0 5.0 0.00 0.00 0.00 76 1013.5
20200409115027 33 272 2.0 5.0 0.00 0.00 0.00 76 1013.6
20200409114633 33 268 2.0 6.0 0.00 0.00 0.00 76 1013.5
20200409114031 32 282 2.0 6.0 0.00 0.00 0.00 76 1013.6
20200409113526 32 269 2.0 3.0 0.00 0.00 0.00 76 1013.7
20200409113050 32 280 1.0 3.0 0.00 0.00 0.00 75 1013.8
20200409112531 32 286 1.0 4.0 0.00 0.00 0.00 75 1013.9
20200409112030 33 268 2.0 4.0 0.00 0.00 0.00 76 1013.8
20200409111538 33 250 2.0 6.0 0.00 0.00 0.00 76 1014.0
20200409111027 32 252 3.0 6.0 0.00 0.00 0.00 76 1013.9
20200409110525 32 234 2.0 3.0 0.00 0.00 0.00 76 1013.9
20200409110037 32 255 1.0 3.0 0.00 0.00 0.00 76 1014.0
20200409105525 32 254 1.0 4.0 0.00 0.00 0.00 76 1013.9
20200409105024 32 254 2.0 5.0 0.00 0.00 0.00 76 1013.9
20200409104643 32 252 1.0 5.0 0.00 0.00 0.00 76 1013.9
20200409104024 32 250 2.0 4.0 0.00 0.00 0.00 76 1013.9
20200409103524 32 250 1.0 4.0 0.00 0.00 0.00 76 1013.8
20200409103034 32 248 1.0 4.0 0.00 0.00 0.00 75 1013.7
20200409102527 32 250 2.0 3.0 0.00 0.00 0.00 75 1013.7
20200409102025 32 252 1.0 3.0 0.00 0.00 0.00 74 1013.7
20200409101536 33 252 2.0 3.0 0.00 0.00 0.00 74 1013.8
20200409101037 33 255 1.0 3.0 0.00 0.00 0.00 74 1013.7
20200409100527 33 249 1.0 3.0 0.00 0.00 0.00 74 1013.6
20200409100137 33 249 1.0 4.0 0.00 0.00 0.00 74 1013.6